Terminal Aerodrome Forecast
Issued by NWS

Home | Current Version | Previous Version | Text Only | Print | Product List | Glossary On
Versions: 1 2 3 4 5 6 7 8 9 10 11 12 13 14 15 16 17 18
000
FTUS43 KDTX 251135
TAFMBS
TAF
KMBS 251135Z 2512/2612 24011KT P6SM SCT025 OVC040
     FM251500 27015G25KT P6SM BKN020
     FM251800 28016G26KT P6SM SKC
     FM260000 27011KT P6SM SKC=

USA.gov is the U.S. government's official web portal to all federal, state and local government web resources and services.